This is the latest recevied weather packets stored in our database for station/object LZ3DJ-10. If no packets are shown the sender has not sent any weather packets the latest 10 day(s).
| Time | Temp. | Humidity | Pressure | Rain* | Wind** | Luminosity | Snow |
|---|---|---|---|---|---|---|---|
| 1787693406 | 25° C | 53% | 1009.6 hPa | 0 mm | 0.45 m/s, 324° | - | - |
| 1787692506 | 25° C | 53% | 1009.5 hPa | 0 mm | 0 m/s | - | - |
| 1787691606 | 25° C | 51% | 1009.4 hPa | 0 mm | 0.45 m/s, 324° | - | - |
| 1787690706 | 25.56° C | 49% | 1009.2 hPa | 0 mm | 0.45 m/s, 133° | - | - |
| 1787689806 | 26.11° C | 49% | 1009.3 hPa | 0 mm | 0 m/s | - | - |
| 1787688906 | 25.56° C | 51% | 1009.7 hPa | 0 mm | 0 m/s | - | - |
| 1787688006 | 25° C | 53% | 1009.9 hPa | 0 mm | 0 m/s | - | - |
| 1787687106 | 25° C | 54% | 1010 hPa | 0 mm | 0 m/s | - | - |
| 1787686206 | 25° C | 55% | 1010.1 hPa | 0 mm | 0 m/s | - | - |
| 1787685305 | 25.56° C | 54% | 1010 hPa | 0 mm | 0 m/s | - | - |
| 1787684406 | 25° C | 57% | 1010 hPa | 0 mm | 0 m/s | - | - |
| 1787683505 | 25.56° C | 56% | 1009.8 hPa | 0 mm | 0 m/s | - | - |
| 1787682605 | 25.56° C | 56% | 1009.6 hPa | 0 mm | 0 m/s | - | - |
| 1787681705 | 26.67° C | 52% | 1009.3 hPa | 0 mm | 0.45 m/s, 125° | - | - |
| 1787680806 | 26.67° C | 51% | 1009.3 hPa | 0 mm | 0.89 m/s, 138° | - | - |
| 1787679905 | 27.22° C | 51% | 1009.2 hPa | 0 mm | 0.89 m/s, 138° | - | - |
| 1787679006 | 27.78° C | 50% | 1009.1 hPa | 0 mm | 0 m/s | - | - |
| 1787678105 | 27.78° C | 49% | 1009 hPa | 0 mm | 0.89 m/s, 136° | - | - |
| 1787677205 | 28.33° C | 48% | 1008.6 hPa | 0 mm | 0.45 m/s, 143° | - | - |
| 1787676306 | 28.89° C | 46% | 1008.2 hPa | 0 mm | 0.89 m/s, 147° | - | - |
| 1787675406 | 30° C | 46% | 1008.2 hPa | 0 mm | 1.34 m/s, 136° | - | - |
| 1787674506 | 30.56° C | 45% | 1008.1 hPa | 0 mm | 0.89 m/s, 126° | - | - |
| 1787673605 | 31.11° C | 45% | 1008.4 hPa | 0 mm | 0.89 m/s, 153° | - | - |
| 1787672706 | 31.11° C | 46% | 1008.5 hPa | 0 mm | 0.89 m/s, 150° | - | - |
| 1787671806 | 30.56° C | 47% | 1008.7 hPa | 0 mm | 0.45 m/s, 154° | - | - |
* Rain latest hour (hover to see other rain measurements)
** Current wind speed in m/s (hover to see current wind gust speed)